TimeCST,TemperatureF,Dew PointF,Humidity,Sea Level PressureIn,VisibilityMPH,Wind Direction,Wind SpeedMPH,Gust SpeedMPH,PrecipitationIn,Events,Conditions,WindDirDegrees,DateUTC
12:15 AM,35.6,21.2,56,30.38,10.0,North,15.0,-,N/A,,Mostly Cloudy,360,2013-02-01 06:15:00
12:35 AM,33.8,15.8,48,30.38,10.0,North,18.4,25.3,N/A,,Clear,360,2013-02-01 06:35:00
1:35 AM,32.0,15.8,51,30.41,10.0,North,15.0,-,N/A,,Clear,360,2013-02-01 07:35:00
1:55 AM,30.2,17.6,60,30.41,10.0,North,13.8,-,N/A,,Clear,350,2013-02-01 07:55:00
2:16 AM,30.2,17.6,60,30.42,10.0,NNE,11.5,-,N/A,,Clear,20,2013-02-01 08:16:00
2:35 AM,28.4,12.2,51,30.43,10.0,NNE,12.7,-,N/A,,Clear,20,2013-02-01 08:35:00
2:55 AM,28.4,12.2,51,30.44,10.0,North,15.0,-,N/A,,Clear,10,2013-02-01 08:55:00
3:35 AM,28.4,10.4,47,30.45,10.0,North,9.2,-,N/A,,Clear,10,2013-02-01 09:35:00
3:55 AM,28.4,10.4,47,30.45,10.0,North,13.8,-,N/A,,Clear,10,2013-02-01 09:55:00
4:15 AM,28.4,10.4,47,30.44,10.0,North,16.1,-,N/A,,Clear,10,2013-02-01 10:15:00
4:35 AM,26.6,10.4,51,30.46,10.0,North,13.8,-,N/A,,Clear,10,2013-02-01 10:35:00
4:55 AM,26.6,10.4,51,30.47,10.0,North,-9999.0,-,N/A,,Clear,0,2013-02-01 10:55:00
5:15 AM,26.6,12.2,55,30.47,10.0,North,-9999.0,-,N/A,,Clear,0,2013-02-01 11:15:00
5:55 AM,26.6,8.6,47,30.49,10.0,North,12.7,-,N/A,,Clear,10,2013-02-01 11:55:00
6:35 AM,24.8,12.2,59,30.50,10.0,NNE,11.5,-,N/A,,Clear,20,2013-02-01 12:35:00
6:55 AM,24.8,12.2,59,30.51,10.0,NNE,10.4,-,N/A,,Clear,20,2013-02-01 12:55:00
7:15 AM,24.8,12.2,59,30.52,10.0,North,-9999.0,-,N/A,,Clear,0,2013-02-01 13:15:00
7:35 AM,24.8,10.4,54,30.51,10.0,North,-9999.0,-,N/A,,Clear,0,2013-02-01 13:35:00
7:55 AM,24.8,8.6,50,30.52,10.0,North,-9999.0,-,N/A,,Clear,0,2013-02-01 13:55:00
8:15 AM,26.6,10.4,51,30.53,10.0,North,-9999.0,-,N/A,,Clear,0,2013-02-01 14:15:00
8:35 AM,26.6,10.4,51,30.54,10.0,North,-9999.0,-,N/A,,Clear,0,2013-02-01 14:35:00
8:55 AM,26.6,10.4,51,30.55,10.0,North,-9999.0,-,N/A,,Clear,0,2013-02-01 14:55:00
9:15 AM,28.4,12.2,51,30.55,10.0,North,-9999.0,-,N/A,,Clear,0,2013-02-01 15:15:00
9:35 AM,28.4,10.4,47,30.56,10.0,North,-9999.0,-,N/A,,Clear,0,2013-02-01 15:35:00
10:15 AM,28.4,10.4,47,30.57,10.0,North,-9999.0,-,N/A,,Clear,0,2013-02-01 16:15:00
10:35 AM,28.4,10.4,47,30.56,10.0,North,-9999.0,-,N/A,,Clear,0,2013-02-01 16:35:00
11:15 AM,30.2,10.4,44,30.56,10.0,North,-9999.0,-,N/A,,Clear,0,2013-02-01 17:15:00
11:35 AM,30.2,10.4,44,30.55,10.0,North,-9999.0,-,N/A,,Clear,0,2013-02-01 17:35:00
12:15 PM,32.0,10.4,41,30.54,10.0,North,-9999.0,-,N/A,,Clear,0,2013-02-01 18:15:00
12:55 PM,33.8,10.4,38,30.51,10.0,North,-9999.0,-,N/A,,Clear,0,2013-02-01 18:55:00
1:15 PM,33.8,10.4,38,30.50,10.0,North,-9999.0,-,N/A,,Clear,0,2013-02-01 19:15:00
1:35 PM,33.8,12.2,41,30.49,10.0,North,-9999.0,-,N/A,,Clear,0,2013-02-01 19:35:00
2:15 PM,35.6,14.0,41,30.46,10.0,North,-9999.0,-,N/A,,Clear,0,2013-02-01 20:15:00
2:35 PM,35.6,12.2,38,30.45,10.0,North,-9999.0,-,N/A,,Clear,0,2013-02-01 20:35:00
2:55 PM,35.6,14.0,41,30.45,10.0,North,-9999.0,-,N/A,,Clear,0,2013-02-01 20:55:00
3:15 PM,35.6,15.8,44,30.44,10.0,North,-9999.0,-,N/A,,Clear,0,2013-02-01 21:15:00
3:35 PM,35.6,15.8,44,30.44,10.0,North,-9999.0,-,N/A,,Clear,0,2013-02-01 21:35:00
4:35 PM,37.4,15.8,41,30.42,10.0,North,-9999.0,-,N/A,,Clear,0,2013-02-01 22:35:00
4:55 PM,37.4,15.8,41,30.41,10.0,North,-9999.0,-,N/A,,Clear,0,2013-02-01 22:55:00
5:35 PM,35.6,15.8,44,30.38,10.0,North,-9999.0,-,N/A,,Clear,0,2013-02-01 23:35:00
5:55 PM,35.6,17.6,48,30.37,10.0,North,-9999.0,-,N/A,,Clear,0,2013-02-01 23:55:00
6:15 PM,35.6,19.4,52,30.37,10.0,North,-9999.0,-,N/A,,Clear,0,2013-02-02 00:15:00
6:35 PM,35.6,19.4,52,30.38,10.0,North,-9999.0,-,N/A,,Clear,0,2013-02-02 00:35:00
6:55 PM,33.8,19.4,56,30.38,10.0,North,-9999.0,-,N/A,,Clear,0,2013-02-02 00:55:00
7:15 PM,33.8,19.4,56,30.38,10.0,North,-9999.0,-,N/A,,Clear,0,2013-02-02 01:15:00
7:55 PM,33.8,19.4,56,30.36,10.0,North,-9999.0,-,N/A,,Clear,0,2013-02-02 01:55:00
8:15 PM,33.8,19.4,56,30.37,10.0,North,-9999.0,-,N/A,,Clear,0,2013-02-02 02:15:00
8:36 PM,32.0,19.4,60,30.37,10.0,North,-9999.0,-,N/A,,Clear,0,2013-02-02 02:36:00
8:55 PM,32.0,19.4,60,30.37,10.0,North,-9999.0,-,N/A,,Clear,0,2013-02-02 02:55:00
9:55 PM,32.0,21.2,64,30.35,10.0,North,-9999.0,-,N/A,,Clear,0,2013-02-02 03:55:00
10:15 PM,32.0,19.4,60,30.34,10.0,North,-9999.0,-,N/A,,Clear,0,2013-02-02 04:15:00
10:55 PM,32.0,21.2,64,30.31,10.0,North,-9999.0,-,N/A,,Clear,0,2013-02-02 04:55:00
11:15 PM,32.0,21.2,64,30.32,10.0,North,-9999.0,-,N/A,,Clear,0,2013-02-02 05:15:00
11:35 PM,32.0,19.4,60,30.31,10.0,North,-9999.0,-,N/A,,Clear,0,2013-02-02 05:35:00
11:56 PM,30.2,21.2,69,30.30,10.0,North,-9999.0,-,N/A,,Clear,0,2013-02-02 05:56:00